Vorticity
-0 3 11 11 10 5 4 2 6 8 11 15 7 7 8 9 10 9 9 11 11 11 9 7 5 7 6 5 5 4 4 4 5 6 8 5 14 7 -2 -2 5 -3 6
16 18 21 23 24 25 24 22 18 16 16 19 15 8 8 10 10 11 11 10 8 7 7 8 6 5 5 5 5 6 5 6 8 8 5 2 11 10 4 3 -0 4 16
17 14 11 9 10 12 12 13 12 12 12 9 8 11 11 8 7 9 9 8 8 6 5 3 3 2 2 3 3 6 8 9 9 11 6 4 5 9 11 -5 7 9 19
11 11 12 13 13 13 12 11 12 12 8 9 10 10 9 8 9 10 9 7 6 4 3 3 3 5 3 4 5 5 6 8 10 11 14 10 8 7 8 14 -3 3 2
6 7 8 8 8 9 10 11 11 11 11 11 11 11 10 9 10 8 6 4 5 3 3 5 5 12 25 48 46 39 40 21 -2 10 12 15 12 12 9 8 1 7 13
13 11 10 9 9 11 12 11 9 10 11 11 12 11 9 10 7 4 5 2 7 3 15 46 81 42 10 5 23 35 39 37 48 39 5 12 13 13 9 9 9 2 10
14 18 16 15 12 9 9 13 15 13 12 12 10 10 10 6 4 6 1 10 9 32 35 -14 -11 -13 -6 -2 20 23 12 38 37 34 43 17 11 6 12 7 8 6 8
8 9 15 17 18 14 11 10 12 13 11 10 11 10 5 5 5 4 -2 23 25 22 -4 13 20 18 45 31 22 31 18 19 35 35 36 42 22 6 8 5 7 5 3
13 8 10 14 16 16 13 11 10 10 11 12 10 6 4 7 2 13 20 33 17 -5 -1 -37 32 51 36 20 18 51 31 25 32 29 32 38 44 14 10 6 9 3 3
12 14 7 13 13 14 11 12 13 11 11 10 8 5 8 4 -2 -1 32 19 -3 -0 -0 -29 11 28 51 69 15 17 49 34 28 30 29 36 40 22 15 10 11 3 5
6 11 12 7 13 13 13 14 14 12 11 9 6 7 5 3 0 13 20 20 16 -5 9 23 51 20 39 22 29 51 33 35 31 35 27 29 36 30 19 11 8 6 3
7 9 13 10 10 13 12 12 11 11 13 7 6 8 1 7 -2 25 9 8 9 7 4 17 13 13 61 58 40 40 41 37 32 36 28 26 30 38 25 12 10 1 8
7 8 9 12 12 13 12 12 11 11 13 6 6 6 1 7 -2 20 26 8 9 16 -21 15 15 88 23 38 20 45 43 32 36 40 40 25 36 43 28 18 11 14 4
7 6 8 8 14 13 13 13 11 12 11 6 8 4 4 6 0 26 31 7 7 -0 17 -7 3 65 24 35 31 41 42 39 41 44 45 32 33 25 7 36 -6 6 5
7 8 6 10 13 13 12 13 12 12 9 8 7 5 3 5 3 19 29 13 1 6 -1 4 9 40 24 -5 36 27 39 44 44 42 40 37 43 20 -5 25 -9 11 3
11 11 7 8 11 13 12 14 13 11 11 7 7 4 4 7 8 19 31 10 7 5 -1 10 16 -17 66 -45 2 40 40 42 38 37 36 60 -18 -58 -23 14 13 15 10
10 11 10 8 11 12 13 14 14 12 12 7 7 4 4 8 6 2 23 29 7 5 5 17 11 1 9 43 13 1 12 72 29 -7 11 30 35 49 28 -4 11 -2 18
11 13 11 9 10 12 13 14 15 11 10 9 7 5 5 6 5 4 5 21 34 8 5 3 10 -0 -7 -9 1 69 18 28 26 10 -41 30 16 -8 -15 10 1 21 -8
14 13 11 11 10 10 11 13 16 13 11 9 9 6 6 5 6 6 5 6 3 17 25 18 6 -5 13 -10 -18 -8 87 50 13 9 17 6 9 7 -23 11 1 16 10
11 9 11 12 10 10 10 11 14 15 12 11 9 7 6 5 5 6 5 5 6 6 4 6 14 29 12 -2 2 -0 12 28 52 41 17 24 21 21 24 -7 4 -21 -6
13 11 12 12 11 10 10 10 10 13 14 13 8 7 8 6 5 5 5 4 8 6 6 9 8 3 6 18 9 10 -3 15 18 3 48 57 19 15 22 -4 -2 18 27
16 12 14 13 12 12 11 11 10 10 11 13 11 10 7 8 8 7 5 4 3 8 4 5 6 10 10 5 4 14 10 3 2 13 22 -1 19 42 45 28 26 29 31
16 16 15 16 15 13 13 13 13 11 10 12 11 9 8 7 9 9 8 6 5 3 6 3 4 6 6 9 10 8 9 17 9 4 -5 33 6 9 2 -6 -43 9 15
10 17 12 7 9 12 13 13 12 12 12 11 12 11 9 7 8 8 9 10 9 6 4 5 4 4 4 3 4 8 12 9 7 21 7 3 15 17 1 11 -7 20 3
9 5 5 12 14 10 11 12 12 11 12 12 11 10 11 10 8 10 9 9 6 5 8 7 8 9 5 6 4 2 4 12 13 9 11 24 10 11 9 -4 10 -4 6
9 8 9 6 3 7 8 7 9 12 13 13 13 12 10 10 11 9 7 6 8 10 7 8 6 7 8 4 5 4 5 5 12 15 13 10 9 24 22 9 6 3 -6
Height
5562 5566 5571 5576 5579 5583 5586 5590 5594 5597 5601 5604 5608 5611 5614 5615 5619 5621 5623 5624 5626 5628 5629 5632 5633 5633 5635 5638 5641 5643 5645 5648 5656 5676 5679 5685 5690 5700 5709 5713 5719 5725 5731
5548 5552 5556 5561 5564 5568 5571 5575 5578 5582 5586 5590 5593 5595 5598 5600 5603 5605 5606 5607 5608 5610 5611 5612 5611 5609 5612 5613 5614 5619 5623 5626 5630 5646 5656 5663 5667 5679 5688 5693 5701 5708 5716
5538 5541 5544 5547 5550 5554 5557 5561 5565 5568 5571 5574 5577 5580 5582 5585 5586 5587 5588 5589 5590 5590 5590 5590 5589 5584 5586 5583 5583 5587 5591 5596 5601 5611 5628 5636 5647 5654 5663 5673 5682 5691 5698
5525 5528 5531 5535 5538 5541 5545 5548 5551 5554 5557 5559 5562 5565 5567 5568 5569 5569 5570 5570 5570 5568 5566 5564 5560 5553 5551 5548 5545 5547 5551 5557 5565 5575 5590 5607 5618 5630 5635 5648 5663 5671 5682
5512 5515 5518 5522 5525 5528 5531 5534 5537 5539 5542 5545 5547 5549 5551 5552 5553 5553 5553 5552 5550 5546 5540 5533 5528 5519 5515 5507 5499 5504 5503 5510 5520 5534 5552 5570 5588 5601 5612 5632 5640 5654 5664
5500 5503 5506 5509 5512 5515 5518 5521 5523 5525 5528 5531 5532 5534 5535 5536 5537 5536 5535 5533 5528 5522 5514 5505 5496 5489 5482 5476 5466 5460 5457 5457 5466 5483 5507 5529 5559 5574 5588 5601 5617 5630 5641
5488 5491 5493 5496 5499 5502 5505 5507 5508 5511 5514 5516 5518 5520 5521 5521 5521 5520 5516 5513 5505 5497 5489 5483 5476 5466 5454 5443 5436 5429 5419 5417 5424 5434 5454 5486 5518 5542 5565 5577 5592 5607 5624
5476 5478 5480 5483 5486 5489 5492 5494 5495 5497 5500 5503 5505 5506 5507 5506 5505 5502 5498 5491 5485 5479 5473 5463 5449 5436 5419 5406 5397 5391 5387 5382 5388 5399 5417 5443 5479 5506 5528 5550 5569 5585 5602
5465 5467 5468 5470 5473 5476 5478 5480 5482 5485 5488 5490 5493 5493 5494 5492 5490 5485 5479 5473 5469 5462 5452 5439 5416 5400 5385 5373 5362 5356 5352 5349 5357 5368 5385 5404 5434 5467 5496 5517 5538 5556 5573
5454 5456 5458 5459 5461 5464 5466 5468 5470 5473 5477 5479 5480 5481 5481 5478 5473 5469 5463 5457 5453 5447 5438 5423 5401 5377 5354 5340 5331 5327 5320 5324 5327 5341 5356 5374 5399 5429 5457 5486 5516 5531 5553
5443 5445 5446 5448 5450 5452 5454 5456 5459 5462 5465 5467 5468 5468 5467 5464 5459 5455 5448 5442 5437 5432 5421 5406 5382 5357 5334 5320 5310 5299 5298 5298 5303 5314 5330 5348 5375 5406 5437 5472 5499 5515 5538
5430 5433 5435 5437 5439 5441 5442 5445 5448 5451 5453 5454 5455 5455 5454 5451 5448 5442 5436 5429 5423 5415 5409 5395 5370 5340 5319 5302 5290 5281 5276 5276 5282 5293 5309 5329 5358 5394 5429 5459 5485 5507 5528
5418 5421 5423 5426 5429 5430 5432 5434 5437 5439 5441 5442 5443 5444 5442 5440 5437 5430 5424 5419 5411 5403 5397 5382 5358 5327 5309 5291 5280 5270 5265 5265 5272 5283 5300 5326 5358 5393 5425 5450 5473 5496 5516
5406 5410 5412 5415 5417 5418 5420 5422 5425 5427 5429 5431 5433 5433 5431 5429 5425 5418 5413 5409 5402 5394 5385 5375 5354 5327 5309 5292 5278 5271 5266 5267 5271 5283 5305 5333 5356 5385 5417 5442 5467 5486 5504
5394 5397 5400 5403 5406 5407 5408 5410 5414 5416 5418 5420 5422 5422 5420 5419 5415 5409 5405 5401 5395 5390 5379 5363 5351 5331 5315 5305 5290 5281 5276 5276 5280 5291 5311 5333 5360 5390 5419 5441 5463 5480 5497
5383 5385 5389 5392 5395 5396 5398 5400 5403 5405 5408 5410 5411 5411 5410 5409 5406 5401 5397 5393 5390 5386 5381 5370 5354 5339 5329 5318 5312 5301 5296 5297 5301 5311 5327 5352 5376 5399 5419 5441 5459 5478 5497
5371 5374 5377 5381 5384 5386 5388 5389 5392 5395 5397 5399 5401 5401 5401 5400 5398 5395 5390 5387 5384 5382 5379 5374 5365 5355 5342 5333 5327 5327 5328 5325 5327 5339 5355 5375 5396 5414 5430 5444 5461 5477 5488
5359 5362 5366 5369 5373 5376 5377 5379 5381 5384 5387 5389 5391 5391 5392 5392 5390 5388 5387 5384 5379 5377 5375 5373 5370 5367 5362 5354 5350 5348 5348 5351 5355 5363 5374 5388 5402 5418 5433 5445 5459 5470 5482
5348 5352 5355 5358 5362 5365 5368 5369 5371 5373 5376 5379 5381 5382 5383 5384 5383 5381 5381 5380 5378 5376 5373 5371 5369 5369 5369 5365 5360 5357 5361 5364 5369 5378 5387 5399 5409 5420 5430 5441 5452 5461 5472
5338 5341 5344 5347 5351 5354 5357 5360 5361 5363 5366 5369 5371 5373 5374 5374 5375 5376 5373 5374 5373 5373 5372 5371 5369 5368 5365 5367 5369 5367 5369 5370 5372 5376 5389 5400 5409 5419 5428 5436 5445 5452 5460
5329 5332 5334 5337 5340 5342 5346 5350 5352 5353 5355 5359 5361 5363 5363 5365 5366 5368 5371 5370 5369 5369 5368 5369 5369 5368 5369 5367 5366 5370 5372 5373 5375 5379 5386 5393 5399 5408 5418 5426 5433 5440 5447
5319 5322 5325 5327 5330 5333 5335 5338 5341 5344 5346 5348 5351 5353 5355 5356 5357 5359 5361 5365 5367 5366 5365 5365 5366 5365 5366 5367 5368 5369 5371 5375 5376 5379 5382 5387 5393 5400 5406 5413 5420 5426 5432
5312 5314 5316 5319 5321 5324 5326 5328 5330 5333 5336 5338 5340 5343 5345 5347 5349 5351 5352 5354 5359 5361 5362 5362 5362 5363 5365 5364 5365 5365 5367 5370 5373 5377 5381 5385 5390 5395 5399 5404 5407 5414 5418
5305 5307 5309 5310 5313 5315 5317 5319 5321 5323 5325 5328 5330 5332 5335 5337 5339 5341 5343 5345 5345 5348 5354 5356 5357 5359 5359 5359 5360 5361 5364 5366 5367 5370 5373 5378 5381 5385 5390 5396 5401 5406 5411
5295 5298 5300 5303 5304 5306 5308 5310 5312 5314 5315 5317 5319 5322 5324 5327 5330 5332 5334 5336 5337 5338 5339 5341 5346 5349 5350 5351 5353 5354 5356 5358 5361 5363 5365 5368 5372 5377 5382 5385 5390 5395 5400
5283 5287 5289 5292 5295 5297 5299 5301 5302 5304 5306 5308 5309 5311 5312 5314 5317 5320 5324 5327 5329 5329 5328 5330 5332 5334 5337 5339 5341 5342 5345 5348 5350 5353 5357 5361 5363 5365 5369 5372 5377 5382 5387